Pride Of Kent — MQCJ2 — position and weather

sailwx.info

Track history (hours):
 
Tides and Currents Weather Stations Pressure Air Temp Water Temp Dewpoint Dewpoint Depression Visibility Wind Speed Wind Dir Waves Ship Positions

Pride Of Kent

Operator: P & O Ferries

Last reported at 2014-Jul-25 03:33 UTC. Time now 2014-Jul-25 03:45 UTC.
Position N 50°58' E 001°48'.

Length 180 m; draft 5.8 m.

Type: Passenger vessel. MMSI: 233009000.

Date/timePositionNaut miles runAvg speedWind from/ knotsBaromVisibWave heightAir tempDewpointWater temp
2014-Jul-25 03:33N 50°58' E 001°48'1616.2
2014-Jul-25 02:33N 51°05' E 001°25'4 3.5
2014-Jul-25 01:31N 51°07' E 001°20'1414.8
2014-Jul-25 00:33N 51°01' E 001°40'8 7.7
2014-Jul-24 23:34N 50°58' E 001°51'1010.0
2014-Jul-24 22:33N 51°00' E 001°36'11 5.3
2014-Jul-24 20:33N 51°07' E 001°23'1615.7
2014-Jul-24 19:33N 50°58' E 001°44'4 4.3
2014-Jul-24 18:33N 50°58' E 001°51'1211.6
2014-Jul-24 17:33N 51°02' E 001°34'10 8.3
2014-Jul-24 16:19N 51°07' E 001°20'6 7.5
2014-Jul-24 15:33N 51°05' E 001°28'1615.7
2014-Jul-24 14:33N 50°58' E 001°51'1 1.2
2014-Jul-24 13:33N 50°58' E 001°49'1616.2
2014-Jul-24 12:33N 51°05' E 001°25'4 3.8
2014-Jul-24 11:27N 51°07' E 001°20'1112.4
2014-Jul-24 10:34N 51°02' E 001°36'10 9.8
2014-Jul-24 09:29N 50°58' E 001°51'3 3.5
2014-Jul-24 08:33N 50°58' E 001°46'1717.1
2014-Jul-24 07:33N 51°06' E 001°22'2 1.5
2014-Jul-24 06:28N 51°07' E 001°20'1213.6
2014-Jul-24 05:33N 51°01' E 001°37'9 9.1
2014-Jul-24 04:33N 50°58' E 001°51'3 3.3
2014-Jul-24 03:34N 50°58' E 001°46'1616.3
2014-Jul-24 02:33N 51°05' E 001°22'3 2.5
2014-Jul-24 01:33N 51°07' E 001°20'1515.0
2014-Jul-24 00:34N 51°00' E 001°41'7 7.0
2014-Jul-23 23:33N 50°58' E 001°51'8 8.4
2014-Jul-23 22:33N 50°60' E 001°38'14 9.5
2014-Jul-23 21:08N 51°07' E 001°20'4 6.1
2014-Jul-23 20:34N 51°06' E 001°25'1716.6
2014-Jul-23 19:34N 50°58' E 001°49'2 1.5
2014-Jul-23 18:33N 50°58' E 001°51'1414.0
2014-Jul-23 17:33N 51°01' E 001°29'9 5.7
2014-Jul-23 16:03N 51°07' E 001°20'611.6
2014-Jul-23 15:33N 51°06' E 001°29'1615.7
2014-Jul-23 14:34N 50°58' E 001°51'0 0.4
2014-Jul-23 13:30N 50°58' E 001°50'1516.1
2014-Jul-23 12:33N 51°04' E 001°28'6 5.0
2014-Jul-23 11:23N 51°07' E 001°20'1012.6
2014-Jul-23 10:33N 51°03' E 001°35'7 3.6
2014-Jul-23 08:29N 50°58' E 001°44'16 6.8
2014-Jul-23 06:05N 51°07' E 001°22'917.7
2014-Jul-23 05:33N 51°03' E 001°36'11 9.7
2014-Jul-23 04:27N 50°58' E 001°51'2 2.0
2014-Jul-23 03:32N 50°58' E 001°48'1515.6
2014-Jul-23 02:34N 51°05' E 001°26'5 2.5
2014-Jul-23 00:33N 51°04' E 001°34'1210.7
2014-Jul-22 23:27N 50°58' E 001°51'9 9.7
2014-Jul-22 22:29N 51°00' E 001°37'8 4.2
2014-Jul-22 20:33N 51°06' E 001°27'1615.6
2014-Jul-22 19:33N 50°58' E 001°49'1 1.0
2014-Jul-22 18:27N 50°58' E 001°51'1416.0
2014-Jul-22 17:33N 51°03' E 001°30'7 6.9
2014-Jul-22 16:29N 51°07' E 001°20'1111.9
2014-Jul-22 15:34N 51°02' E 001°35'2 0.8
2014-Jul-22 13:04N 50°60' E 001°34'917.3
2014-Jul-22 12:33N 51°06' E 001°24'3 2.5
2014-Jul-22 11:33N 51°07' E 001°20'1414.0
2014-Jul-22 10:33N 51°00' E 001°39'1 0.6
2014-Jul-22 08:16N 50°60' E 001°37'12 6.2
2014-Jul-22 06:17N 51°07' E 001°22'1114.9
2014-Jul-22 05:34N 51°02' E 001°37'6 3.1
2014-Jul-22 03:30N 50°58' E 001°45'1616.9
2014-Jul-22 02:34N 51°06' E 001°23'3 1.3
2014-Jul-22 00:33N 51°06' E 001°27'1716.4
2014-Jul-21 23:33N 50°58' E 001°50'8 5.3
2014-Jul-21 22:07N 50°59' E 001°39'1017.6
2014-Jul-21 21:34N 51°05' E 001°27'3 2.8
2014-Jul-21 20:22N 51°07' E 001°22'115.6
2014-Jul-21 20:18N 51°07' E 001°24'1216.7
2014-Jul-21 19:33N 51°01' E 001°41'7 3.7
2014-Jul-21 17:33N 51°01' E 001°29'3 1.5
2014-Jul-21 15:33N 51°03' E 001°33'5 2.0
2014-Jul-21 13:06N 50°59' E 001°39'1017.6
2014-Jul-21 12:34N 51°05' E 001°26'5 2.5
2014-Jul-21 10:33N 51°04' E 001°34'6 2.8
2014-Jul-21 08:19N 50°59' E 001°41'16 8.5
2014-Jul-21 06:30N 51°07' E 001°20'1212.4
2014-Jul-21 05:33N 51°03' E 001°37'10 9.1
2014-Jul-21 04:28N 50°58' E 001°51'18 9.3
2014-Jul-21 02:34N 51°05' E 001°25'2 0.8
2014-Jul-21 00:33N 51°07' E 001°24'1615.9
2014-Jul-20 23:33N 50°58' E 001°46'3 2.8
2014-Jul-20 22:23N 50°58' E 001°51'1415.2
2014-Jul-20 21:27N 51°04' E 001°30'7 5.4
2014-Jul-20 20:07N 51°07' E 001°20'915.3
2014-Jul-20 19:33N 51°05' E 001°33'13 8.8
2014-Jul-20 18:06N 50°58' E 001°51'1118.8
2014-Jul-20 17:33N 51°01' E 001°34'1111.3
2014-Jul-20 16:32N 51°07' E 001°20'1010.0
2014-Jul-20 15:33N 51°04' E 001°34'8 4.1
2014-Jul-20 13:30N 50°58' E 001°44'17 7.2
2014-Jul-20 11:12N 51°07' E 001°22'1015.6
2014-Jul-20 10:34N 51°02' E 001°36'10 8.2
2014-Jul-20 09:17N 50°58' E 001°51'8 8.9
2014-Jul-20 08:23N 50°58' E 001°38'1416.4
2014-Jul-20 07:30N 51°07' E 001°20'0 0.0
2014-Jul-20 06:16N 51°07' E 001°20'6 7.9
2014-Jul-20 05:34N 51°06' E 001°28'1616.1
2014-Jul-20 04:34N 50°58' E 001°51'1 0.7
2014-Jul-20 03:33N 50°58' E 001°50'1717.0
2014-Jul-20 02:33N 51°05' E 001°25'5 0.8
2014-Jul-19 20:33N 51°04' E 001°33'1312.9
2014-Jul-19 19:33N 50°58' E 001°51'0 0.1
2014-Jul-19 18:32N 50°58' E 001°51'7 7.5
2014-Jul-19 17:33N 50°59' E 001°39'11 5.3
2014-Jul-19 15:34N 51°07' E 001°28'1716.6
2014-Jul-19 14:33N 50°58' E 001°51'0 0.2
2014-Jul-19 13:22N 50°58' E 001°50'1417.0
2014-Jul-19 12:34N 51°03' E 001°30'2 0.9
2014-Jul-19 10:33N 51°03' E 001°33'11 5.4
2014-Jul-19 08:33N 50°58' E 001°48'18 7.4
2014-Jul-19 06:04N 51°07' E 001°22'917.7
2014-Jul-19 05:33N 51°03' E 001°35'1110.8
2014-Jul-19 04:32N 50°58' E 001°51'3 3.3
2014-Jul-19 03:33N 50°58' E 001°46'1615.6
2014-Jul-19 02:33N 51°06' E 001°25'3 3.3
2014-Jul-19 01:32N 51°07' E 001°20'5 5.0
2014-Jul-19 00:33N 51°06' E 001°27'1716.7
2014-Jul-18 23:33N 50°58' E 001°51'3 2.8
2014-Jul-18 22:34N 50°58' E 001°47'18 8.7
2014-Jul-18 20:30N 51°07' E 001°23'5 5.8
2014-Jul-18 19:33N 51°05' E 001°30'1514.5
2014-Jul-18 18:33N 50°58' E 001°51'6 5.6
2014-Jul-18 17:33N 50°58' E 001°42'1716.6
2014-Jul-18 16:33N 51°07' E 001°20'2 2.1
2014-Jul-18 15:34N 51°07' E 001°23'1818.3
2014-Jul-18 14:33N 50°58' E 001°49'1 1.2
2014-Jul-18 13:27N 50°58' E 001°51'1516.5
2014-Jul-18 12:33N 51°04' E 001°29'7 5.3
2014-Jul-18 11:17N 51°07' E 001°20'1115.6
2014-Jul-18 10:33N 51°03' E 001°37'7 3.4
2014-Jul-18 08:33N 50°58' E 001°44'1817.2
2014-Jul-18 07:32N 51°07' E 001°21'0 0.3
2014-Jul-18 06:27N 51°07' E 001°20'1011.4
2014-Jul-18 05:33N 51°04' E 001°35'1110.6
2014-Jul-18 04:29N 50°58' E 001°51'3 3.1
2014-Jul-18 03:33N 50°58' E 001°47'1515.2
2014-Jul-18 02:33N 51°05' E 001°25'4 2.9
2014-Jul-18 01:08N 51°07' E 001°20'711.4
2014-Jul-18 00:33N 51°06' E 001°30'1414.1
2014-Jul-17 23:33N 50°58' E 001°49'1 1.2
2014-Jul-17 22:33N 50°58' E 001°51'1616.1
2014-Jul-17 21:33N 51°04' E 001°27'6 5.6
2014-Jul-17 20:31N 51°07' E 001°20'1213.0
2014-Jul-17 19:34N 51°02' E 001°38'9 9.1
2014-Jul-17 18:34N 50°58' E 001°51'8 7.8
2014-Jul-17 17:33N 50°58' E 001°38'1514.4
2014-Jul-17 16:32N 51°07' E 001°20'1 1.3
2014-Jul-17 15:33N 51°07' E 001°22'1818.1
2014-Jul-17 14:34N 50°58' E 001°47'2 2.0
2014-Jul-17 13:18N 50°58' E 001°51'1317.0
2014-Jul-17 12:33N 51°02' E 001°32'2 0.8
2014-Jul-17 10:34N 51°03' E 001°33'9 4.0
2014-Jul-17 08:23N 50°58' E 001°44'1618.8
2014-Jul-17 07:34N 51°06' E 001°23'1 0.6
2014-Jul-17 06:03N 51°07' E 001°22'917.5
2014-Jul-17 05:33N 51°03' E 001°35'12 9.4
2014-Jul-17 04:20N 50°58' E 001°51'5 5.2
2014-Jul-17 03:19N 50°59' E 001°43'1215.7
2014-Jul-17 02:33N 51°04' E 001°26'1 0.7
2014-Jul-17 00:33N 51°06' E 001°27'1515.4
2014-Jul-16 23:34N 50°58' E 001°48'2 1.8
2014-Jul-16 22:33N 50°58' E 001°51'1312.7
2014-Jul-16 21:34N 51°02' E 001°32'9 7.5
2014-Jul-16 20:19N 51°07' E 001°20'1113.9
2014-Jul-16 19:33N 51°03' E 001°35'1111.0
2014-Jul-16 18:33N 50°58' E 001°51'4 4.4
2014-Jul-16 17:33N 50°58' E 001°44'1812.0
2014-Jul-16 16:05N 51°07' E 001°20'1 2.1
2014-Jul-16 15:33N 51°07' E 001°22'1817.7
2014-Jul-16 14:33N 50°58' E 001°46'3 3.2
2014-Jul-16 13:33N 50°58' E 001°51'1413.6
2014-Jul-16 12:33N 51°04' E 001°31'8 6.0
2014-Jul-16 11:14N 51°07' E 001°20'710.7
2014-Jul-16 10:33N 51°04' E 001°30'1413.7
2014-Jul-16 09:31N 50°58' E 001°51'3 2.8
2014-Jul-16 08:32N 50°58' E 001°47'1616.7
2014-Jul-16 07:33N 51°06' E 001°24'3 2.7
2014-Jul-16 06:28N 51°07' E 001°20'1010.7
2014-Jul-16 05:33N 51°03' E 001°34'1211.4
2014-Jul-16 04:31N 50°58' E 001°51'8 6.5
2014-Jul-16 03:15N 50°60' E 001°38'1115.6
2014-Jul-16 02:34N 51°06' E 001°24'3 2.3
2014-Jul-16 01:15N 51°07' E 001°20'5 7.0
2014-Jul-16 00:33N 51°06' E 001°27'1515.4
2014-Jul-15 23:33N 50°58' E 001°49'1 0.4
2014-Jul-15 22:19N 50°58' E 001°50'1215.6
2014-Jul-15 21:33N 51°02' E 001°32'9 8.8
2014-Jul-15 20:32N 51°07' E 001°20'7 7.3
2014-Jul-15 19:33N 51°04' E 001°30'1414.3
2014-Jul-15 18:33N 50°58' E 001°51'5 4.6
2014-Jul-15 17:33N 50°58' E 001°44'17 8.2
2014-Jul-15 15:28N 51°07' E 001°21'1817.3
2014-Jul-15 14:26N 50°58' E 001°45'4 3.3
2014-Jul-15 13:20N 50°58' E 001°51'1316.0
2014-Jul-15 12:33N 51°02' E 001°32'4 1.9
2014-Jul-15 10:34N 51°06' E 001°30'1514.6
2014-Jul-15 09:31N 50°58' E 001°51'4 3.7
2014-Jul-15 08:23N 50°58' E 001°44'1518.3
2014-Jul-15 07:34N 51°06' E 001°24'6 3.2
2014-Jul-15 05:33N 51°04' E 001°34'  
Track history (hours):
 
Tides and Currents Weather Stations Pressure Air Temp Water Temp Dewpoint Dewpoint Depression Visibility Wind Speed Wind Dir Waves Ship Positions

Pride Of Kent

Operator: P & O Ferries

Last reported at 2014-Jul-25 03:33 UTC. Time now 2014-Jul-25 03:45 UTC.
Position N 50°58' E 001°48'.

Length 180 m; draft 5.8 m.

Type: Passenger vessel. MMSI: 233009000.

Date/timePositionNaut miles runAvg speedWind from/ knotsBaromVisibWave heightAir tempDewpointWater temp
2014-Jul-25 03:33N 50°58' E 001°48'1616.2
2014-Jul-25 02:33N 51°05' E 001°25'4 3.5
2014-Jul-25 01:31N 51°07' E 001°20'1414.8
2014-Jul-25 00:33N 51°01' E 001°40'8 7.7
2014-Jul-24 23:34N 50°58' E 001°51'1010.0
2014-Jul-24 22:33N 51°00' E 001°36'11 5.3
2014-Jul-24 20:33N 51°07' E 001°23'1615.7
2014-Jul-24 19:33N 50°58' E 001°44'4 4.3
2014-Jul-24 18:33N 50°58' E 001°51'1211.6
2014-Jul-24 17:33N 51°02' E 001°34'10 8.3
2014-Jul-24 16:19N 51°07' E 001°20'6 7.5
2014-Jul-24 15:33N 51°05' E 001°28'1615.7
2014-Jul-24 14:33N 50°58' E 001°51'1 1.2
2014-Jul-24 13:33N 50°58' E 001°49'1616.2
2014-Jul-24 12:33N 51°05' E 001°25'4 3.8
2014-Jul-24 11:27N 51°07' E 001°20'1112.4
2014-Jul-24 10:34N 51°02' E 001°36'10 9.8
2014-Jul-24 09:29N 50°58' E 001°51'3 3.5
2014-Jul-24 08:33N 50°58' E 001°46'1717.1
2014-Jul-24 07:33N 51°06' E 001°22'2 1.5
2014-Jul-24 06:28N 51°07' E 001°20'1213.6
2014-Jul-24 05:33N 51°01' E 001°37'9 9.1
2014-Jul-24 04:33N 50°58' E 001°51'3 3.3
2014-Jul-24 03:34N 50°58' E 001°46'1616.3
2014-Jul-24 02:33N 51°05' E 001°22'3 2.5
2014-Jul-24 01:33N 51°07' E 001°20'1515.0
2014-Jul-24 00:34N 51°00' E 001°41'7 7.0
2014-Jul-23 23:33N 50°58' E 001°51'8 8.4
2014-Jul-23 22:33N 50°60' E 001°38'14 9.5
2014-Jul-23 21:08N 51°07' E 001°20'4 6.1
2014-Jul-23 20:34N 51°06' E 001°25'1716.6
2014-Jul-23 19:34N 50°58' E 001°49'2 1.5
2014-Jul-23 18:33N 50°58' E 001°51'1414.0
2014-Jul-23 17:33N 51°01' E 001°29'9 5.7
2014-Jul-23 16:03N 51°07' E 001°20'611.6
2014-Jul-23 15:33N 51°06' E 001°29'1615.7
2014-Jul-23 14:34N 50°58' E 001°51'0 0.4
2014-Jul-23 13:30N 50°58' E 001°50'1516.1
2014-Jul-23 12:33N 51°04' E 001°28'6 5.0
2014-Jul-23 11:23N 51°07' E 001°20'1012.6
2014-Jul-23 10:33N 51°03' E 001°35'7 3.6
2014-Jul-23 08:29N 50°58' E 001°44'16 6.8
2014-Jul-23 06:05N 51°07' E 001°22'917.7
2014-Jul-23 05:33N 51°03' E 001°36'11 9.7
2014-Jul-23 04:27N 50°58' E 001°51'2 2.0
2014-Jul-23 03:32N 50°58' E 001°48'1515.6
2014-Jul-23 02:34N 51°05' E 001°26'5 2.5
2014-Jul-23 00:33N 51°04' E 001°34'1210.7
2014-Jul-22 23:27N 50°58' E 001°51'9 9.7
2014-Jul-22 22:29N 51°00' E 001°37'8 4.2
2014-Jul-22 20:33N 51°06' E 001°27'1615.6
2014-Jul-22 19:33N 50°58' E 001°49'1 1.0
2014-Jul-22 18:27N 50°58' E 001°51'1416.0
2014-Jul-22 17:33N 51°03' E 001°30'7 6.9
2014-Jul-22 16:29N 51°07' E 001°20'1111.9
2014-Jul-22 15:34N 51°02' E 001°35'2 0.8
2014-Jul-22 13:04N 50°60' E 001°34'917.3
2014-Jul-22 12:33N 51°06' E 001°24'3 2.5
2014-Jul-22 11:33N 51°07' E 001°20'1414.0
2014-Jul-22 10:33N 51°00' E 001°39'1 0.6
2014-Jul-22 08:16N 50°60' E 001°37'12 6.2
2014-Jul-22 06:17N 51°07' E 001°22'1114.9
2014-Jul-22 05:34N 51°02' E 001°37'6 3.1
2014-Jul-22 03:30N 50°58' E 001°45'1616.9
2014-Jul-22 02:34N 51°06' E 001°23'3 1.3
2014-Jul-22 00:33N 51°06' E 001°27'1716.4
2014-Jul-21 23:33N 50°58' E 001°50'8 5.3
2014-Jul-21 22:07N 50°59' E 001°39'1017.6
2014-Jul-21 21:34N 51°05' E 001°27'3 2.8
2014-Jul-21 20:22N 51°07' E 001°22'115.6
2014-Jul-21 20:18N 51°07' E 001°24'1216.7
2014-Jul-21 19:33N 51°01' E 001°41'7 3.7
2014-Jul-21 17:33N 51°01' E 001°29'3 1.5
2014-Jul-21 15:33N 51°03' E 001°33'5 2.0
2014-Jul-21 13:06N 50°59' E 001°39'1017.6
2014-Jul-21 12:34N 51°05' E 001°26'5 2.5
2014-Jul-21 10:33N 51°04' E 001°34'6 2.8
2014-Jul-21 08:19N 50°59' E 001°41'16 8.5
2014-Jul-21 06:30N 51°07' E 001°20'1212.4
2014-Jul-21 05:33N 51°03' E 001°37'10 9.1
2014-Jul-21 04:28N 50°58' E 001°51'18 9.3
2014-Jul-21 02:34N 51°05' E 001°25'2 0.8
2014-Jul-21 00:33N 51°07' E 001°24'1615.9
2014-Jul-20 23:33N 50°58' E 001°46'3 2.8
2014-Jul-20 22:23N 50°58' E 001°51'1415.2
2014-Jul-20 21:27N 51°04' E 001°30'7 5.4
2014-Jul-20 20:07N 51°07' E 001°20'915.3
2014-Jul-20 19:33N 51°05' E 001°33'13 8.8
2014-Jul-20 18:06N 50°58' E 001°51'1118.8
2014-Jul-20 17:33N 51°01' E 001°34'1111.3
2014-Jul-20 16:32N 51°07' E 001°20'1010.0
2014-Jul-20 15:33N 51°04' E 001°34'8 4.1
2014-Jul-20 13:30N 50°58' E 001°44'17 7.2
2014-Jul-20 11:12N 51°07' E 001°22'1015.6
2014-Jul-20 10:34N 51°02' E 001°36'10 8.2
2014-Jul-20 09:17N 50°58' E 001°51'8 8.9
2014-Jul-20 08:23N 50°58' E 001°38'1416.4
2014-Jul-20 07:30N 51°07' E 001°20'0 0.0
2014-Jul-20 06:16N 51°07' E 001°20'6 7.9
2014-Jul-20 05:34N 51°06' E 001°28'1616.1
2014-Jul-20 04:34N 50°58' E 001°51'1 0.7
2014-Jul-20 03:33N 50°58' E 001°50'1717.0
2014-Jul-20 02:33N 51°05' E 001°25'5 0.8
2014-Jul-19 20:33N 51°04' E 001°33'1312.9
2014-Jul-19 19:33N 50°58' E 001°51'0 0.1
2014-Jul-19 18:32N 50°58' E 001°51'7 7.5
2014-Jul-19 17:33N 50°59' E 001°39'11 5.3
2014-Jul-19 15:34N 51°07' E 001°28'1716.6
2014-Jul-19 14:33N 50°58' E 001°51'0 0.2
2014-Jul-19 13:22N 50°58' E 001°50'1417.0
2014-Jul-19 12:34N 51°03' E 001°30'2 0.9
2014-Jul-19 10:33N 51°03' E 001°33'11 5.4
2014-Jul-19 08:33N 50°58' E 001°48'18 7.4
2014-Jul-19 06:04N 51°07' E 001°22'917.7
2014-Jul-19 05:33N 51°03' E 001°35'1110.8
2014-Jul-19 04:32N 50°58' E 001°51'3 3.3
2014-Jul-19 03:33N 50°58' E 001°46'1615.6
2014-Jul-19 02:33N 51°06' E 001°25'3 3.3
2014-Jul-19 01:32N 51°07' E 001°20'5 5.0
2014-Jul-19 00:33N 51°06' E 001°27'1716.7
2014-Jul-18 23:33N 50°58' E 001°51'3 2.8
2014-Jul-18 22:34N 50°58' E 001°47'18 8.7
2014-Jul-18 20:30N 51°07' E 001°23'5 5.8
2014-Jul-18 19:33N 51°05' E 001°30'1514.5
2014-Jul-18 18:33N 50°58' E 001°51'6 5.6
2014-Jul-18 17:33N 50°58' E 001°42'1716.6
2014-Jul-18 16:33N 51°07' E 001°20'2 2.1
2014-Jul-18 15:34N 51°07' E 001°23'1818.3
2014-Jul-18 14:33N 50°58' E 001°49'1 1.2
2014-Jul-18 13:27N 50°58' E 001°51'1516.5
2014-Jul-18 12:33N 51°04' E 001°29'7 5.3
2014-Jul-18 11:17N 51°07' E 001°20'1115.6
2014-Jul-18 10:33N 51°03' E 001°37'7 3.4
2014-Jul-18 08:33N 50°58' E 001°44'1817.2
2014-Jul-18 07:32N 51°07' E 001°21'0 0.3
2014-Jul-18 06:27N 51°07' E 001°20'1011.4
2014-Jul-18 05:33N 51°04' E 001°35'1110.6
2014-Jul-18 04:29N 50°58' E 001°51'3 3.1
2014-Jul-18 03:33N 50°58' E 001°47'1515.2
2014-Jul-18 02:33N 51°05' E 001°25'4 2.9
2014-Jul-18 01:08N 51°07' E 001°20'711.4
2014-Jul-18 00:33N 51°06' E 001°30'1414.1
2014-Jul-17 23:33N 50°58' E 001°49'1 1.2
2014-Jul-17 22:33N 50°58' E 001°51'1616.1
2014-Jul-17 21:33N 51°04' E 001°27'6 5.6
2014-Jul-17 20:31N 51°07' E 001°20'1213.0
2014-Jul-17 19:34N 51°02' E 001°38'9 9.1
2014-Jul-17 18:34N 50°58' E 001°51'8 7.8
2014-Jul-17 17:33N 50°58' E 001°38'1514.4
2014-Jul-17 16:32N 51°07' E 001°20'1 1.3
2014-Jul-17 15:33N 51°07' E 001°22'1818.1
2014-Jul-17 14:34N 50°58' E 001°47'2 2.0
2014-Jul-17 13:18N 50°58' E 001°51'1317.0
2014-Jul-17 12:33N 51°02' E 001°32'2 0.8
2014-Jul-17 10:34N 51°03' E 001°33'9 4.0
2014-Jul-17 08:23N 50°58' E 001°44'1618.8
2014-Jul-17 07:34N 51°06' E 001°23'1 0.6
2014-Jul-17 06:03N 51°07' E 001°22'917.5
2014-Jul-17 05:33N 51°03' E 001°35'12 9.4
2014-Jul-17 04:20N 50°58' E 001°51'5 5.2
2014-Jul-17 03:19N 50°59' E 001°43'1215.7
2014-Jul-17 02:33N 51°04' E 001°26'1 0.7
2014-Jul-17 00:33N 51°06' E 001°27'1515.4
2014-Jul-16 23:34N 50°58' E 001°48'2 1.8
2014-Jul-16 22:33N 50°58' E 001°51'1312.7
2014-Jul-16 21:34N 51°02' E 001°32'9 7.5
2014-Jul-16 20:19N 51°07' E 001°20'1113.9
2014-Jul-16 19:33N 51°03' E 001°35'1111.0
2014-Jul-16 18:33N 50°58' E 001°51'4 4.4
2014-Jul-16 17:33N 50°58' E 001°44'1812.0
2014-Jul-16 16:05N 51°07' E 001°20'1 2.1
2014-Jul-16 15:33N 51°07' E 001°22'1817.7
2014-Jul-16 14:33N 50°58' E 001°46'3 3.2
2014-Jul-16 13:33N 50°58' E 001°51'1413.6
2014-Jul-16 12:33N 51°04' E 001°31'8 6.0
2014-Jul-16 11:14N 51°07' E 001°20'710.7
2014-Jul-16 10:33N 51°04' E 001°30'1413.7
2014-Jul-16 09:31N 50°58' E 001°51'3 2.8
2014-Jul-16 08:32N 50°58' E 001°47'1616.7
2014-Jul-16 07:33N 51°06' E 001°24'3 2.7
2014-Jul-16 06:28N 51°07' E 001°20'1010.7
2014-Jul-16 05:33N 51°03' E 001°34'1211.4
2014-Jul-16 04:31N 50°58' E 001°51'8 6.5
2014-Jul-16 03:15N 50°60' E 001°38'1115.6
2014-Jul-16 02:34N 51°06' E 001°24'3 2.3
2014-Jul-16 01:15N 51°07' E 001°20'5 7.0
2014-Jul-16 00:33N 51°06' E 001°27'1515.4
2014-Jul-15 23:33N 50°58' E 001°49'1 0.4
2014-Jul-15 22:19N 50°58' E 001°50'1215.6
2014-Jul-15 21:33N 51°02' E 001°32'9 8.8
2014-Jul-15 20:32N 51°07' E 001°20'7 7.3
2014-Jul-15 19:33N 51°04' E 001°30'1414.3
2014-Jul-15 18:33N 50°58' E 001°51'5 4.6
2014-Jul-15 17:33N 50°58' E 001°44'17 8.2
2014-Jul-15 15:28N 51°07' E 001°21'1817.3
2014-Jul-15 14:26N 50°58' E 001°45'4 3.3
2014-Jul-15 13:20N 50°58' E 001°51'1316.0
2014-Jul-15 12:33N 51°02' E 001°32'4 1.9
2014-Jul-15 10:34N 51°06' E 001°30'1514.6
2014-Jul-15 09:31N 50°58' E 001°51'4 3.7
2014-Jul-15 08:23N 50°58' E 001°44'1518.3
2014-Jul-15 07:34N 51°06' E 001°24'6 3.2
2014-Jul-15 05:33N 51°04' E 001°34'  

Dump ship's entire track history